| time (UTC) | temp F | wind direction | speed knots | gust knots | rain 1hr in | rain 24hr in | rain mn in | humidity % | barometer mb |
| 20260506103033 | 54 | 187 | 0.9 | 1.7 | 0.00 | 0.06 | 0.00 | 67 | 1012.0 |
| 20260506101529 | 55 | 157 | 0.0 | 0.9 | 0.00 | 0.06 | 0.00 | 66 | 1011.8 |
| 20260506100033 | 55 | 215 | 0.0 | 0.0 | 0.00 | 0.06 | 0.00 | 66 | 1011.8 |
| 20260506094527 | 55 | 168 | 0.9 | 2.6 | 0.00 | 0.10 | 0.00 | 66 | 1011.6 |
| 20260506093027 | 56 | 160 | 0.0 | 2.6 | 0.00 | 0.10 | 0.00 | 67 | 1011.6 |
| 20260506091524 | 56 | 182 | 0.9 | 2.6 | 0.00 | 0.10 | 0.00 | 68 | 1011.4 |
| 20260506090021 | 57 | 158 | 0.9 | 3.5 | 0.00 | 0.10 | 0.00 | 68 | 1011.4 |
| 20260506084519 | 57 | 134 | 0.0 | 3.5 | 0.00 | 0.15 | 0.00 | 67 | 1011.6 |
| 20260506083017 | 57 | 163 | 1.7 | 4.3 | 0.00 | 0.15 | 0.00 | 66 | 1011.5 |
| 20260506081519 | 58 | 160 | 0.0 | 0.0 | 0.00 | 0.15 | 0.00 | 65 | 1011.7 |
| 20260506073005 | 60 | 228 | 0.0 | 0.0 | 0.00 | 0.22 | 0.00 | 61 | 1011.8 |
| 20260506071502 | 60 | 239 | 0.0 | 0.0 | 0.00 | 0.22 | 0.00 | 60 | 1011.8 |
| 20260506070126 | 61 | 233 | 0.0 | 3.5 | 0.00 | 0.22 | 0.00 | 59 | 1011.6 |
| 20260506061558 | 62 | 276 | 0.0 | 2.6 | 0.00 | 0.26 | 0.22 | 56 | 1011.3 |
| 20260506050105 | 64 | 273 | 0.0 | 2.6 | 0.00 | 0.28 | 0.22 | 52 | 1011.0 |
| 20260506044553 | 64 | 295 | 0.9 | 3.5 | 0.00 | 0.28 | 0.22 | 51 | 1010.8 |
| 20260506043051 | 64 | 272 | 1.7 | 7.0 | 0.00 | 0.28 | 0.22 | 50 | 1010.6 |
| 20260506041549 | 65 | 242 | 2.6 | 7.0 | 0.00 | 0.28 | 0.22 | 48 | 1010.3 |
| 20260506040049 | 65 | 263 | 2.6 | 7.0 | 0.00 | 0.28 | 0.22 | 44 | 1010.1 |
| 20260506034551 | 66 | 255 | 0.9 | 4.3 | 0.00 | 0.30 | 0.22 | 40 | 1009.9 |
| 20260506033048 | 66 | 266 | 0.9 | 5.2 | 0.00 | 0.30 | 0.22 | 38 | 1009.8 |
| 20260506031547 | 67 | 240 | 1.7 | 5.2 | 0.00 | 0.30 | 0.22 | 37 | 1009.6 |
| 20260506030047 | 67 | 268 | 0.9 | 8.7 | 0.00 | 0.30 | 0.22 | 36 | 1009.4 |
| 20260506024554 | 68 | 201 | 2.6 | 10.4 | 0.00 | 0.36 | 0.22 | 36 | 1009.2 |
| 20260506023045 | 68 | 259 | 2.6 | 8.7 | 0.00 | 0.36 | 0.22 | 37 | 1008.9 |
| 20260506021545 | 68 | 262 | 2.6 | 10.4 | 0.00 | 0.36 | 0.22 | 37 | 1008.6 |
| 20260506020055 | 70 | 278 | 3.5 | 9.6 | 0.00 | 0.36 | 0.22 | 35 | 1008.3 |
| 20260506014548 | 71 | 271 | 4.3 | 13.0 | 0.00 | 0.43 | 0.22 | 35 | 1008.2 |
| 20260506013143 | 72 | 274 | 5.2 | 15.6 | 0.00 | 0.43 | 0.22 | 33 | 1008.0 |
| 20260506011606 | 74 | 213 | 3.5 | 10.4 | 0.00 | 0.43 | 0.22 | 29 | 1007.8 |
| 20260506010043 | 74 | 330 | 7.0 | 12.2 | 0.00 | 0.43 | 0.22 | 29 | 1007.7 |
| 20260506004557 | 75 | 293 | 4.3 | 13.0 | 0.00 | 0.46 | 0.22 | 30 | 1007.5 |
| 20260506003040 | 75 | 264 | 6.1 | 12.2 | 0.00 | 0.46 | 0.22 | 29 | 1007.4 |
| 20260506001544 | 75 | 264 | 4.3 | 7.8 | 0.00 | 0.46 | 0.22 | 31 | 1007.3 |
| 20260506000108 | 75 | 259 | 4.3 | 13.9 | 0.00 | 0.46 | 0.22 | 30 | 1007.2 |
| 20260505234545 | 76 | 226 | 4.3 | 13.9 | 0.00 | 0.46 | 0.22 | 29 | 1007.0 |
| 20260505233036 | 76 | 248 | 5.2 | 12.2 | 0.00 | 0.46 | 0.22 | 28 | 1007.0 |
| 20260505231537 | 76 | 259 | 3.5 | 12.2 | 0.00 | 0.46 | 0.22 | 28 | 1007.0 |
| 20260505230051 | 77 | 237 | 7.0 | 13.9 | 0.00 | 0.46 | 0.22 | 28 | 1007.0 |
| 20260505224539 | 76 | 257 | 4.3 | 14.8 | 0.00 | 0.46 | 0.22 | 29 | 1007.0 |
| 20260505223032 | 76 | 270 | 7.0 | 13.9 | 0.00 | 0.46 | 0.22 | 28 | 1007.3 |
| 20260505221529 | 76 | 226 | 6.1 | 14.8 | 0.00 | 0.46 | 0.22 | 29 | 1007.2 |
| 20260505220026 | 76 | 225 | 6.1 | 15.6 | 0.00 | 0.46 | 0.22 | 31 | 1007.3 |
| 20260505214528 | 76 | 285 | 5.2 | 16.5 | 0.00 | 0.46 | 0.22 | 34 | 1007.5 |
| 20260505213025 | 76 | 231 | 8.7 | 20.0 | 0.00 | 0.46 | 0.22 | 33 | 1007.6 |
| 20260505211526 | 74 | 238 | 7.0 | 20.0 | 0.00 | 0.46 | 0.22 | 38 | 1007.7 |
| 20260505210018 | 74 | 290 | 7.8 | 14.8 | 0.00 | 0.46 | 0.22 | 37 | 1007.8 |
| 20260505204515 | 75 | 243 | 5.2 | 13.0 | 0.00 | 0.46 | 0.22 | 40 | 1007.9 |
| 20260505203014 | 74 | 338 | 5.2 | 14.8 | 0.00 | 0.46 | 0.22 | 40 | 1008.0 |
| 20260505201512 | 74 | 224 | 1.7 | 8.7 | 0.00 | 0.46 | 0.22 | 41 | 1008.1 |
| 20260505200011 | 74 | 281 | 1.7 | 7.0 | 0.00 | 0.46 | 0.22 | 49 | 1008.2 |
| 20260505194508 | 74 | 271 | 3.5 | 6.1 | 0.00 | 0.46 | 0.22 | 49 | 1008.4 |
| 20260505193009 | 73 | 11 | 3.5 | 7.0 | 0.00 | 0.46 | 0.22 | 50 | 1008.3 |
| 20260505191504 | 72 | 268 | 0.9 | 6.1 | 0.00 | 0.46 | 0.22 | 53 | 1008.6 |
| 20260505190005 | 71 | 288 | 2.6 | 7.0 | 0.00 | 0.46 | 0.22 | 54 | 1008.9 |
| 20260505184505 | 71 | 233 | 1.7 | 6.1 | 0.00 | 0.46 | 0.22 | 54 | 1009.2 |
| 20260505183100 | 70 | 314 | 0.9 | 5.2 | 0.00 | 0.46 | 0.22 | 58 | 1009.3 |
| 20260505181559 | 69 | 341 | 1.7 | 5.2 | 0.00 | 0.46 | 0.22 | 60 | 1009.4 |
| 20260505174556 | 69 | 226 | 0.0 | 5.2 | 0.00 | 0.46 | 0.22 | 60 | 1009.7 |
| 20260505173111 | 68 | 145 | 0.0 | 2.6 | 0.00 | 0.46 | 0.22 | 62 | 1009.7 |
| 20260505171603 | 65 | 319 | 0.0 | 2.6 | 0.00 | 0.46 | 0.22 | 68 | 1009.8 |
| 20260505170047 | 65 | 37 | 0.0 | 0.0 | 0.00 | 0.46 | 0.22 | 69 | 1009.6 |
| 20260505164545 | 64 | 333 | 0.0 | 0.9 | 0.00 | 0.46 | 0.22 | 71 | 1009.6 |
| 20260505163041 | 63 | 231 | 0.0 | 1.7 | 0.00 | 0.46 | 0.22 | 76 | 1009.7 |
| 20260505161539 | 63 | 231 | 0.0 | 2.6 | 0.00 | 0.46 | 0.22 | 76 | 1009.7 |
| 20260505153032 | 60 | 210 | 0.0 | 0.0 | 0.00 | 0.46 | 0.22 | 86 | 1009.4 |
| 20260505151527 | 60 | 148 | 0.0 | 1.7 | 0.00 | 0.46 | 0.22 | 89 | 1009.5 |
| 20260505124525 | 57 | 222 | 0.0 | 0.0 | 0.01 | 0.46 | 0.22 | 94 | 1008.4 |
| 20260505123017 | 57 | 222 | 0.0 | 0.0 | 0.01 | 0.46 | 0.22 | 94 | 1008.2 |
| 20260505121528 | 57 | 75 | 0.0 | 0.0 | 0.00 | 0.45 | 0.21 | 94 | 1008.1 |
| 20260505120015 | 57 | 75 | 0.0 | 0.0 | 0.02 | 0.45 | 0.21 | 93 | 1007.9 |
| 20260505114515 | 57 | 1 | 0.0 | 1.7 | 0.03 | 0.45 | 0.21 | 93 | 1007.8 |
| 20260505113013 | 57 | 336 | 0.0 | 0.0 | 0.03 | 0.45 | 0.21 | 93 | 1008.0 |
| 20260505111512 | 57 | 261 | 0.0 | 0.0 | 0.05 | 0.45 | 0.21 | 93 | 1008.1 |